Regional Weather Roundup
Issued by NWS

Home | Current Version | Previous Version | Text Only | Print | Product List | Glossary On
Versions: 1 2 3 4 5 6 7 8 9 10 11 12 13 14 15 16 17 18 19 20 21 22 23 24 25 26 27
000
ASUS45 KBOI 010410
RWRID
WEATHER ROUNDUP FOR IDAHO
NATIONAL WEATHER SERVICE BOISE ID
1000 PM MDT FRI OCT 31 2014

NOTE: "FAIR" INDICATES FEW OR NO CLOUDS BELOW 12000 FEET
WITH NO SIGNIFICANT WEATHER AND/OR OBSTRUCTIONS TO VISIBILITY

IDZ012-014-010500-
SOUTHWEST IDAHO


CITY           SKY/WX    TMP DP  RH WIND       PRES   REMARKS
BOISE          MOCLDY    54  37  52 CALM      29.65F
CALDWELL       MOCLDY    48  37  66 W6        29.67F
MOUNTAIN HOME  MOCLDY    50  32  50 NE5       29.65F
$$

IDZ016-017-010500-
SOUTHCENTRAL IDAHO


CITY           SKY/WX    TMP DP  RH WIND       PRES   REMARKS
BURLEY         CLOUDY    50  35  56 CALM      29.71F
JEROME         MOCLDY    54  29  38 NE15      29.71F
TWIN FALLS     MOCLDY    55  31  39 SE9       29.70F
$$

IDZ019>023-010500-
SOUTHEAST IDAHO


CITY           SKY/WX    TMP DP  RH WIND       PRES   REMARKS
IDAHO FALLS    MOCLDY    43  28  55 N3        29.83F
POCATELLO      CLEAR     53  28  38 N3        29.79F
REXBURG        MOCLDY    46  28  49 CALM      29.84F
$$

IDZ006-010-011-018-031-032-010500-
CENTRAL IDAHO MOUNTAINS


CITY           SKY/WX    TMP DP  RH WIND       PRES   REMARKS
MCCALL         NOT AVBL
HAILEY         PTCLDY    45  28  53 NW9       29.83F
STANLEY          N/A     34  26  72 CALM      29.85S
SALMON         CLEAR     43  34  70 S5        29.76S
CHALLIS        NOT AVBL
$$

IDZ002-004-006-007-026-010500-
NORTHERN IDAHO


CITY           SKY/WX    TMP DP  RH WIND       PRES   REMARKS
LEWISTON       CLOUDY    53  47  79 N6        29.80R
LOWELL           N/A     49  47  93 VRB3      29.78R
COEUR D`ALENE  CLOUDY    48  46  93 CALM      29.79S
MULLAN PASS    CLOUDY    40  37  89 CALM      29.82F
$$



USA.gov is the U.S. government's official web portal to all federal, state and local government web resources and services.